STARLINK-30444, 57871

Orbit data source: Space-Track

STARLINK-30444, 57871 is a payload satellite owned by SpaceX/Seattle (US) in LEO that was launched on Sat, 16 Sep 2023 UTC via an FALCON 9 launch vehicle from the Air Force Eastern Test Range (AFETR). Payload-class satellites include a variety of spacecraft equipped with specific instruments for various scientific and technological missions. These include communications satellites like Starlink; space stations such as the ISS; scientific satellites like the Hubble; Earth observation satellites from companies like Planet Labs, Umbra, and HawkEye 360; GPS; miniature CubeSats for education and research; and military/defense satellites.

Loading next visibility...
Identifier
57871, 2023-144H
Orbit
LEO
Country
Flag of USUS
Related business
Manufacturer
SpaceX/Seattle
Mission
Operational Commercial Communications
Bus & Motor
STARLINK V2M, Unknown motor
Mass
730 kg wet, ~700 kg dry
Launch date (UTC)
2023-09-16 (2 years ago)
Launch vehicle
FALCON 9
Launch site
Air Force Eastern Test Range (AFETR)
Object type
Payload
Rocket body
Debris
Shape & HBR
Box + 2 Pan, 17.7 m
Radar Cross Section
33.884 m², Large (>1 m²)

Expand to show TLE details & history
Last TLE update: 16 hours ago

TLE from 16 hours ago
0 STARLINK-30444
1 57871U 23144H   25348.96358977  .00016284  00000-0  12170-2 0  9992
2 57871  43.0037  28.0252 0001452 273.1501  86.9176 15.02558273124593
Epoch: 2025-12-14T23:07Z
TLE epoch observation values (Epoch: 2025-12-14T23:07:34.156Z)
Latitude
0.00005°
Longitude
-42.73603°
Altitude
558.735 km
Speed
7.584 km/s
True Right ascension
01h 52m 06s
True Declination
0° 00' 00"
Sunlit
Object was in full shadow at epoch
Visualization orbit readout
Latitude
Unknown
Longitude
Unknown
Altitude
Unknown
Speed
Unknown
Apparent Right ascension
Unknown
Apparent Declination
Unknown
Sunlit
N/A
Visualization observer readout
Local Sidereal Time
13:24:35
Azimuth
Unknown
Elevation
Unknown
Doppler factor
Unknown
Orbital elements
Apogee altitude
561.942 km
Perigee altitude
559.927 km
Semi-major axis
6,939.071 km
Eccentricity
0.00015
Inclination
43.0037°
RAAN
28.0252°
Arg. of periapsis
273.1501°
True anomaly
86.93421°
Mean anomaly
86.9176°
Eccentric anomaly
86.92591°
Mean motion
3.75484 °/min
Orbital period
95.88 mins
BSTAR
0.001217
Loading maneuver chart data...
Computing Atmospheric mass density...
Loading historical data...
Loading historical data...
Loading historical data...
Loading historical data...
Loading historical data...
Loading historical data...
Loading historical data...

Documentation

Showing up to 5 results
|